Stündliche Wetter Laboe

Heute, 11 Mai, Dienstag

Zeit Temperatur Niederschläge Wind Luftdruck Luftfeuchtigkeit
00:00 +12°C° 0.7 mm 3 m/S 757 mmHg 93%
01:00 +12°C° 0 mm 3 m/S 757 mmHg 94%
02:00 +11°C° 1.9 mm 3 m/S 757 mmHg 95%
03:00 +11°C° 1.9 mm 4 m/S 757 mmHg 97%
04:00 +11°C° 1.9 mm 4 m/S 757 mmHg 98%
05:00 +11°C° 1.3 mm 4 m/S 757 mmHg 98%
06:00 +11°C° 1.3 mm 4 m/S 757 mmHg 98%
07:00 +10°C° 0 mm 4 m/S 758 mmHg 97%
08:00 +11°C° 0.2 mm 4 m/S 757 mmHg 96%
09:00 +11°C° 0.2 mm 4 m/S 757 mmHg 95%
10:00 +10°C° 0.2 mm 5 m/S 757 mmHg 94%
11:00 +10°C° 0.1 mm 5 m/S 756 mmHg 92%
12:00 +11°C° 0.1 mm 6 m/S 756 mmHg 91%
13:00 +11°C° 0.1 mm 6 m/S 756 mmHg 89%
14:00 +11°C° 0 mm 6 m/S 756 mmHg 88%
15:00 +11°C° 0 mm 6 m/S 756 mmHg 88%
16:00 +13°C° 0 mm 6 m/S 756 mmHg 87%
17:00 +11°C° 0.1 mm 6 m/S 755 mmHg 89%
18:00 +11°C° 0.1 mm 6 m/S 755 mmHg 90%
19:00 +10°C° 0.1 mm 6 m/S 754 mmHg 91%
20:00 +10°C° 0.3 mm 6 m/S 754 mmHg 93%
21:00 +9°C° 0.3 mm 6 m/S 754 mmHg 95%
22:00 +9°C° 0.3 mm 6 m/S 754 mmHg 97%
23:00 +9°C° 0.1 mm 6 m/S 754 mmHg 97%

Morgen, 12 Mai, Mittwoch

Zeit Temperatur Niederschläge Wind Luftdruck Luftfeuchtigkeit
00:00 +9°C° 0.1 mm 5 m/S 754 mmHg 97%
01:00 +9°C° 0.1 mm 5 m/S 754 mmHg 97%
02:00 +8°C° 0.1 mm 5 m/S 754 mmHg 97%
03:00 +8°C° 0.1 mm 4 m/S 754 mmHg 97%
04:00 +8°C° 0.1 mm 4 m/S 754 mmHg 97%
05:00 +8°C° 0 mm 4 m/S 754 mmHg 96%
06:00 +8°C° 0 mm 5 m/S 754 mmHg 96%
07:00 +9°C° 0 mm 5 m/S 754 mmHg 95%
08:00 +9°C° 0 mm 5 m/S 755 mmHg 92%
09:00 +11°C° 0 mm 4 m/S 755 mmHg 89%
10:00 +12°C° 0 mm 4 m/S 755 mmHg 86%
11:00 +13°C° 0 mm 4 m/S 755 mmHg 81%
12:00 +14°C° 0 mm 4 m/S 755 mmHg 76%
13:00 +15°C° 0 mm 4 m/S 756 mmHg 71%
14:00 +15°C° 0 mm 4 m/S 756 mmHg 70%
15:00 +15°C° 0 mm 4 m/S 756 mmHg 69%
16:00 +15°C° 0 mm 5 m/S 756 mmHg 69%
17:00 +14°C° 0 mm 4 m/S 757 mmHg 73%
18:00 +13°C° 0 mm 4 m/S 757 mmHg 76%
19:00 +12°C° 0 mm 4 m/S 757 mmHg 80%
20:00 +11°C° 0 mm 4 m/S 757 mmHg 83%
21:00 +10°C° 0 mm 4 m/S 757 mmHg 85%
22:00 +9°C° 0 mm 3 m/S 757 mmHg 88%
23:00 +9°C° 0 mm 3 m/S 757 mmHg 90%

übermorgen, 13 Mai, Donnerstag

Zeit Temperatur Niederschläge Wind Luftdruck Luftfeuchtigkeit
00:00 +9°C° 0 mm 3 m/S 757 mmHg 91%
01:00 +9°C° 0 mm 3 m/S 757 mmHg 93%
02:00 +9°C° 0 mm 3 m/S 757 mmHg 93%
03:00 +9°C° 0 mm 3 m/S 756 mmHg 93%
04:00 +9°C° 0 mm 3 m/S 756 mmHg 93%
05:00 +10°C° 0 mm 3 m/S 756 mmHg 91%
06:00 +10°C° 0 mm 4 m/S 756 mmHg 88%
07:00 +10°C° 0 mm 4 m/S 756 mmHg 86%
08:00 +11°C° 0 mm 4 m/S 755 mmHg 82%
09:00 +12°C° 0 mm 4 m/S 755 mmHg 78%
10:00 +13°C° 0 mm 5 m/S 755 mmHg 74%
11:00 +13°C° 0 mm 5 m/S 755 mmHg 73%
12:00 +13°C° 0 mm 4 m/S 754 mmHg 73%
13:00 +13°C° 0 mm 4 m/S 754 mmHg 73%
14:00 +13°C° 0 mm 4 m/S 754 mmHg 74%
15:00 +12°C° 0 mm 3 m/S 754 mmHg 75%
16:00 +12°C° 0 mm 3 m/S 753 mmHg 76%
17:00 +12°C° 0 mm 3 m/S 753 mmHg 78%
18:00 +12°C° 0 mm 2 m/S 753 mmHg 80%
19:00 +12°C° 0 mm 2 m/S 753 mmHg 82%
20:00 +12°C° 0.1 mm 2 m/S 753 mmHg 84%
21:00 +10°C° 0.1 mm 2 m/S 753 mmHg 87%
22:00 +10°C° 0.1 mm 2 m/S 753 mmHg 89%
23:00 +10°C° 0 mm 2 m/S 753 mmHg 91%

14 Mai, Freitag

Zeit Temperatur Niederschläge Wind Luftdruck Luftfeuchtigkeit
00:00 +10°C° 0 mm 2 m/S 753 mmHg 93%
01:00 +10°C° 0 mm 2 m/S 753 mmHg 94%
02:00 +10°C° 0 mm 2 m/S 752 mmHg 94%
03:00 +10°C° 0 mm 2 m/S 752 mmHg 93%
04:00 +10°C° 0 mm 2 m/S 752 mmHg 92%
05:00 +10°C° 0 mm 2 m/S 752 mmHg 89%
06:00 +10°C° 0 mm 2 m/S 753 mmHg 87%
07:00 +12°C° 0 mm 1 m/S 753 mmHg 84%
08:00 +13°C° 0 mm 1 m/S 753 mmHg 81%
09:00 +14°C° 0 mm 1 m/S 753 mmHg 78%
10:00 +14°C° 0 mm 1 m/S 753 mmHg 74%
11:00 +14°C° 0 mm 1 m/S 753 mmHg 76%
12:00 +14°C° 0 mm 1 m/S 753 mmHg 77%
13:00 +14°C° 0 mm 1 m/S 753 mmHg 79%
14:00 +14°C° 0.1 mm 1 m/S 753 mmHg 82%
15:00 +14°C° 0.1 mm 1 m/S 753 mmHg 84%
16:00 +14°C° 0.1 mm 1 m/S 753 mmHg 87%
17:00 +13°C° 0.3 mm 1 m/S 753 mmHg 89%
18:00 +12°C° 0.3 mm 2 m/S 753 mmHg 92%
19:00 +12°C° 0.3 mm 2 m/S 753 mmHg 95%
20:00 +10°C° 0.9 mm 2 m/S 753 mmHg 95%
21:00 +10°C° 0.9 mm 2 m/S 753 mmHg 96%
22:00 +10°C° 0.9 mm 2 m/S 754 mmHg 97%
23:00 +9°C° 0.6 mm 2 m/S 753 mmHg 97%

15 Mai, Samstag

Zeit Temperatur Niederschläge Wind Luftdruck Luftfeuchtigkeit
00:00 +9°C° 0.6 mm 3 m/S 753 mmHg 97%
01:00 +9°C° 0.6 mm 3 m/S 753 mmHg 97%
02:00 +7°C° 0.4 mm 4 m/S 753 mmHg 97%
03:00 +7°C° 0.4 mm 4 m/S 753 mmHg 97%
04:00 +7°C° 0.4 mm 5 m/S 753 mmHg 97%
05:00 +7°C° 0.1 mm 5 m/S 753 mmHg 97%
06:00 +7°C° 0.1 mm 5 m/S 753 mmHg 97%
07:00 +7°C° 0.1 mm 5 m/S 753 mmHg 96%
08:00 +7°C° 0 mm 5 m/S 753 mmHg 95%
09:00 +8°C° 0 mm 5 m/S 753 mmHg 94%
10:00 +8°C° 0 mm 5 m/S 753 mmHg 94%
11:00 +8°C° 0 mm 6 m/S 753 mmHg 92%
12:00 +8°C° 0.1 mm 6 m/S 754 mmHg 91%
13:00 +9°C° 0.1 mm 6 m/S 754 mmHg 89%
14:00 +9°C° 0.1 mm 6 m/S 754 mmHg 89%
15:00 +9°C° 0.1 mm 6 m/S 754 mmHg 89%
16:00 +8°C° 0.1 mm 6 m/S 754 mmHg 89%
17:00 +8°C° 0 mm 5 m/S 753 mmHg 88%
18:00 +8°C° 0 mm 4 m/S 753 mmHg 87%
19:00 +8°C° 0 mm 4 m/S 753 mmHg 86%
20:00 +7°C° 0 mm 4 m/S 753 mmHg 88%
21:00 +7°C° 0 mm 3 m/S 753 mmHg 91%
22:00 +5°C° 0 mm 3 m/S 753 mmHg 93%
23:00 +6°C° 0 mm 2 m/S 753 mmHg 93%

16 Mai, Sonntag

Zeit Temperatur Niederschläge Wind Luftdruck Luftfeuchtigkeit
00:00 +6°C° 0 mm 2 m/S 753 mmHg 93%
01:00 +5°C° 0 mm 2 m/S 753 mmHg 93%
02:00 +5°C° 0 mm 2 m/S 753 mmHg 93%
03:00 +5°C° 0 mm 2 m/S 753 mmHg 93%
04:00 +6°C° 0 mm 1 m/S 753 mmHg 93%
05:00 +7°C° 0 mm 1 m/S 753 mmHg 91%
06:00 +9°C° 0 mm 1 m/S 753 mmHg 89%
07:00 +10°C° 0 mm 1 m/S 753 mmHg 87%
08:00 +12°C° 0.1 mm 2 m/S 753 mmHg 86%
09:00 +13°C° 0.1 mm 2 m/S 752 mmHg 84%
10:00 +14°C° 0.1 mm 2 m/S 752 mmHg 83%
11:00 +12°C° 0.4 mm 3 m/S 752 mmHg 86%
12:00 +11°C° 0.4 mm 3 m/S 752 mmHg 89%
13:00 +11°C° 0.4 mm 3 m/S 752 mmHg 92%
14:00 +11°C° 0.1 mm 3 m/S 752 mmHg 87%
15:00 +13°C° 0.1 mm 2 m/S 752 mmHg 83%
16:00 +13°C° 0.1 mm 2 m/S 752 mmHg 78%
17:00 +13°C° 0.2 mm 2 m/S 752 mmHg 82%
18:00 +13°C° 0.2 mm 2 m/S 752 mmHg 86%
19:00 +12°C° 0.2 mm 2 m/S 752 mmHg 89%
20:00 +10°C° 0 mm 2 m/S 752 mmHg 91%
21:00 +9°C° 0 mm 2 m/S 752 mmHg 93%
22:00 +8°C° 0 mm 3 m/S 752 mmHg 95%
23:00 +8°C° 0 mm 3 m/S 752 mmHg 95%
Mehr zeigen

Wir brauchen deine Erlaubnis

Meteoprog und unser Service Anbieter werden persönliche Daten aufbewahren, so wie Cookies, Geräte Bezeichnung oder ähnliche Technologien von deinem Gerät und Prozess, so wie Persönliche Daten Inhalte und Werbungen, genauso wie social Media und den Verkehr zu analysieren.

  • Aufbewahrung und/oder Zugang zu deiner Geräte Informationen.

    Cookies, Geräte Bezeichnung oder andere Informationen, können aufbewahrt oder Zugang zu deinem Gerät erhalten, für den Grund, der oben angegeben wird.

  • Personalisierte Werbung und Inhalte, Messungen, Einblick in das Publikum und Produkt Entwicklung.

    Werbungen und Inhalte können personalisiert werden, basierend auf ein Profil. Mehr Daten können besser personalisierte Werbungen und Inhalte hinzufügen. Werbung und Inhalte können gezeigt und gemessen werden. Einblicke über das Publikum, welche die Werbung gesehen haben und den Inhalt, können abgeleitet werden. So wie Daten können genutzt werden, um es zu verbessern oder die Benutzer Erfahrung zu verbessern das System und die Software.

Wenn du “Ich stimme zu” klickst, erlaubst du uns, die Cookies zu benutzen die Geräte Bezeichnung, den Web oder ähnliche Technologien zu benutzen. Deine Settings, können in deinem Gerät bei deinem Browser geändert werden.

Für den bestimmten Zweck, berechtigten Interessen beruhen darauf, mehr als auf den Inhalt. Du kannst mehr darüber in unseren Privaten und Cookie Politik lesen.